UAL2482 KDEN-KCOS

Flight info

Callsign UAL2482
Flight time 0h 20m
Altitude 17000
Route LUFSE V389 ADANE/N0374F160 BRK
Aircraft A319/M-SDE3FGHIRWY/LB1

Departure

Time 2026-04-26 12:39
Airport Denver International Airport (KDEN)

Arrival

Time 2026-04-26 12:59
Airport City of Colorado Springs Municipal Airport (KCOS)
Time Latitude Longitude Altitude Speed Heading
2026-04-26 12:21 39.85936 -104.67839 5387 ft 0 kts 180°
2026-04-26 12:29 39.85945 -104.67839 5384 ft 4 kts 182°
2026-04-26 12:29 39.85972 -104.67836 5387 ft 4 kts 191°
2026-04-26 12:29 39.86011 -104.67805 5384 ft 2 kts 270°
2026-04-26 12:30 39.86011 -104.67798 5387 ft 0 kts 270°
2026-04-26 12:32 39.86011 -104.67811 5384 ft 6 kts 270°
2026-04-26 12:32 39.86012 -104.67910 5385 ft 13 kts 271°
2026-04-26 12:32 39.86015 -104.68034 5386 ft 8 kts 272°
2026-04-26 12:33 39.86018 -104.68125 5387 ft 12 kts 277°
2026-04-26 12:33 39.86030 -104.68249 5383 ft 17 kts 274°
2026-04-26 12:33 39.86030 -104.68425 5367 ft 18 kts 270°
2026-04-26 12:33 39.85951 -104.68511 5365 ft 18 kts 182°
2026-04-26 12:34 39.85818 -104.68513 5367 ft 20 kts 180°
2026-04-26 12:34 39.85672 -104.68514 5369 ft 22 kts 181°
2026-04-26 12:34 39.85512 -104.68516 5373 ft 24 kts 180°
2026-04-26 12:34 39.85337 -104.68518 5372 ft 22 kts 181°
2026-04-26 12:35 39.85215 -104.68558 5368 ft 19 kts 242°
2026-04-26 12:35 39.85201 -104.68761 5360 ft 26 kts 268°
2026-04-26 12:35 39.85197 -104.68976 5354 ft 22 kts 269°
2026-04-26 12:35 39.85197 -104.69194 5346 ft 24 kts 271°
2026-04-26 12:36 39.85201 -104.69340 5343 ft 15 kts 271°
2026-04-26 12:36 39.85202 -104.69480 5335 ft 14 kts 271°
2026-04-26 12:36 39.85201 -104.69596 5336 ft 13 kts 270°
2026-04-26 12:36 39.85234 -104.69658 5333 ft 10 kts 352°
2026-04-26 12:37 39.85250 -104.69659 5335 ft 0 kts 359°
2026-04-26 12:38 39.85325 -104.69659 5336 ft 39 kts
2026-04-26 12:38 39.85870 -104.69652 5340 ft 117 kts
2026-04-26 12:38 39.86934 -104.69638 5455 ft 171 kts
2026-04-26 12:39 39.88105 -104.69650 6392 ft 172 kts
2026-04-26 12:39 39.89345 -104.69684 7143 ft 180 kts 353°
2026-04-26 12:39 39.90566 -104.70355 7383 ft 205 kts 315°
2026-04-26 12:39 39.91322 -104.72014 7666 ft 227 kts 278°
2026-04-26 12:40 39.91189 -104.74134 8067 ft 250 kts 245°
2026-04-26 12:40 39.90075 -104.75958 8619 ft 268 kts 212°
2026-04-26 12:40 39.88289 -104.76695 9512 ft 278 kts 182°
2026-04-26 12:40 39.86411 -104.76035 10424 ft 291 kts 154°
2026-04-26 12:41 39.84750 -104.74283 10743 ft 324 kts 137°
2026-04-26 12:41 39.83172 -104.72086 11314 ft 339 kts 135°
2026-04-26 12:41 39.81555 -104.69799 12131 ft 343 kts 139°
2026-04-26 12:41 39.79699 -104.67841 12953 ft 346 kts 150°
2026-04-26 12:42 39.77542 -104.66468 13732 ft 348 kts 163°
2026-04-26 12:42 39.75216 -104.65489 14343 ft 354 kts 165°
2026-04-26 12:42 39.72878 -104.64423 15122 ft 358 kts 163°
2026-04-26 12:42 39.70544 -104.63241 15851 ft 362 kts 162°
2026-04-26 12:43 39.68197 -104.62005 16571 ft 367 kts 162°
2026-04-26 12:43 39.65816 -104.60745 16879 ft 369 kts 162°
2026-04-26 12:43 39.63419 -104.59491 16958 ft 378 kts 163°
2026-04-26 12:43 39.60945 -104.58221 16960 ft 384 kts 163°
2026-04-26 12:44 39.58450 -104.56956 16953 ft 386 kts 163°
2026-04-26 12:44 39.55950 -104.55697 16947 ft 386 kts 163°
2026-04-26 12:44 39.53450 -104.54445 16956 ft 385 kts 163°
2026-04-26 12:44 39.50949 -104.53195 16957 ft 385 kts 163°
2026-04-26 12:45 39.49290 -104.52368 16958 ft 385 kts 163°
2026-04-26 12:45 39.46763 -104.51109 16957 ft 385 kts 163°
2026-04-26 12:45 39.44262 -104.49857 16946 ft 385 kts 163°
2026-04-26 12:45 39.41764 -104.48603 16942 ft 385 kts 163°
2026-04-26 12:46 39.39268 -104.47349 16941 ft 385 kts 163°
2026-04-26 12:46 39.36769 -104.46100 16949 ft 385 kts 163°
2026-04-26 12:46 39.34268 -104.44853 16932 ft 385 kts 164°
2026-04-26 12:46 39.31765 -104.43608 16940 ft 385 kts 164°
2026-04-26 12:47 39.29268 -104.42366 16950 ft 385 kts 164°
2026-04-26 12:47 39.26766 -104.41121 16956 ft 385 kts 164°
2026-04-26 12:47 39.24260 -104.39874 16965 ft 385 kts 164°
2026-04-26 12:47 39.21716 -104.38897 16973 ft 379 kts 174°
2026-04-26 12:48 39.19112 -104.38557 16979 ft 373 kts 184°
2026-04-26 12:48 39.16526 -104.38670 16987 ft 372 kts 187°
2026-04-26 12:48 39.13937 -104.38802 16993 ft 372 kts 187°
2026-04-26 12:48 39.11351 -104.38934 16946 ft 369 kts 187°
2026-04-26 12:49 39.08796 -104.39062 16160 ft 365 kts 187°
2026-04-26 12:49 39.06308 -104.39179 15569 ft 351 kts 187°
2026-04-26 12:49 39.03882 -104.39291 15007 ft 347 kts 187°
2026-04-26 12:49 39.01477 -104.39406 14439 ft 344 kts 187°
2026-04-26 12:50 38.99097 -104.39524 13879 ft 341 kts 187°
2026-04-26 12:50 38.96777 -104.39945 13274 ft 331 kts 202°
2026-04-26 12:50 38.94804 -104.41319 12739 ft 319 kts 222°
2026-04-26 12:50 38.93387 -104.43442 12191 ft 312 kts 241°
2026-04-26 12:51 38.92666 -104.46038 11627 ft 310 kts 260°
2026-04-26 12:51 38.92682 -104.48800 11074 ft 311 kts 276°
2026-04-26 12:51 38.93017 -104.51546 10526 ft 311 kts 277°
2026-04-26 12:51 38.93349 -104.54235 10392 ft 297 kts 277°
2026-04-26 12:52 38.93664 -104.56789 10292 ft 282 kts 276°
2026-04-26 12:52 38.93959 -104.59191 10177 ft 262 kts 276°
2026-04-26 12:52 38.94576 -104.61308 10044 ft 251 kts 303°
2026-04-26 12:52 38.95907 -104.62714 9938 ft 254 kts 333°
2026-04-26 12:53 38.97641 -104.63176 9760 ft 255 kts 351°
2026-04-26 12:53 38.99268 -104.63751 9521 ft 233 kts 323°
2026-04-26 12:53 39.00326 -104.65188 9170 ft 215 kts 292°
2026-04-26 12:53 39.00649 -104.66953 8774 ft 198 kts 264°
2026-04-26 12:54 39.00288 -104.68587 8309 ft 188 kts 238°
2026-04-26 12:54 38.99395 -104.69774 7987 ft 182 kts 212°
2026-04-26 12:54 38.98236 -104.70312 7971 ft 173 kts 188°
2026-04-26 12:54 38.97058 -104.70164 7974 ft 171 kts 165°
2026-04-26 12:55 38.95979 -104.69512 7982 ft 173 kts 158°
2026-04-26 12:55 38.94906 -104.68827 8013 ft 173 kts 157°
2026-04-26 12:55 38.93751 -104.68541 8003 ft 156 kts 184°
2026-04-26 12:55 38.92726 -104.68556 8005 ft 142 kts 182°
2026-04-26 12:56 38.91765 -104.68559 8000 ft 135 kts 182°
2026-04-26 12:56 38.90843 -104.68560 7998 ft 133 kts 182°
2026-04-26 12:56 38.89908 -104.68564 7822 ft 137 kts 181°
2026-04-26 12:56 38.88979 -104.68565 7647 ft 131 kts 181°
2026-04-26 12:57 38.88062 -104.68566 7468 ft 131 kts 180°
2026-04-26 12:57 38.87142 -104.68567 7317 ft 132 kts 179°
2026-04-26 12:57 38.86230 -104.68568 7128 ft 129 kts 176°
2026-04-26 12:58 38.84415 -104.68545 6703 ft 129 kts 175°
2026-04-26 12:58 38.83523 -104.68530 6543 ft 128 kts 177°
2026-04-26 12:58 38.82636 -104.68526 6371 ft 128 kts 177°
2026-04-26 12:58 38.81755 -104.68574 6217 ft 126 kts 174°
2026-04-26 12:59 38.80883 -104.68588 6204 ft 126 kts 173°
2026-04-26 12:59 38.80158 -104.68575 6197 ft 81 kts 180°
2026-04-26 12:59 38.79764 -104.68575 6194 ft 39 kts 180°
2026-04-26 12:59 38.79486 -104.68577 6191 ft 36 kts 180°
2026-04-26 13:00 38.79261 -104.68622 6193 ft 25 kts 200°
2026-04-26 13:00 38.79135 -104.68720 6194 ft 15 kts 254°
2026-04-26 13:00 38.79216 -104.68791 6194 ft 18 kts
2026-04-26 13:00 38.79359 -104.68789 6193 ft 23 kts
2026-04-26 13:01 38.79528 -104.68788 6194 ft 26 kts
2026-04-26 13:01 38.79719 -104.68789 6194 ft 25 kts
2026-04-26 13:01 38.79888 -104.68789 6194 ft 26 kts
2026-04-26 13:01 38.80080 -104.68788 6194 ft 30 kts
2026-04-26 13:02 38.80232 -104.68789 6195 ft 16 kts 358°
2026-04-26 13:02 38.80278 -104.68899 6194 ft 18 kts 270°
2026-04-26 13:02 38.80278 -104.69074 6194 ft 21 kts 270°
2026-04-26 13:02 38.80279 -104.69279 6194 ft 25 kts 270°
2026-04-26 13:03 38.80279 -104.69511 6194 ft 25 kts 270°
2026-04-26 13:03 38.80269 -104.69698 6193 ft 13 kts 239°
2026-04-26 13:03 38.80175 -104.69725 6194 ft 17 kts 180°
2026-04-26 13:03 38.80077 -104.69775 6194 ft 14 kts 255°
2026-04-26 13:04 38.80062 -104.69914 6193 ft 15 kts 225°
2026-04-26 13:04 38.79979 -104.69934 6194 ft 14 kts 179°
2026-04-26 13:04 38.79935 -104.69988 6194 ft 11 kts 262°
2026-04-26 13:04 38.79934 -104.70025 6194 ft 0 kts 268°